Terug naar catalogus

COSMOS 2251 DEB

ActiefLEO
NORAD 35660·DEBRIS·🇷🇺 Russia

Gelanceerd Jun 16, 1993 vanaf Plesetsk Cosmodrome

Loading…

Volgende Passages (komende 24 uur)

TLE

VerouderendSource: Space-Track

Epoch: Sep 9, 2026, 23:30 UTC

1 35660U 93036APB 26252.97938955  .00000664  00000-0  17583-3 0  9996
2 35660  74.0418 343.7262 0016799  61.0686  52.7755 14.50658886698030

Volg COSMOS 2251 DEB in realtime met AllMySat

Download on the App Store